Weather History for KSRB - April, 2013

Change the Weather History Date:

Wednesday, April 17, 2013

  Actual Average (KCSV) Record (KCSV)
Temperature  
Mean Temperature 72 °F 56 °F  
Max Temperature 84 °F 67 °F 85 °F (1955)
Min Temperature 60 °F 46 °F 29 °F (2001)
Degree Days  
Heating Degree Days 0    
Month to date heating degree days  
Since 1 July heating degree days  
Cooling Degree Days 7    
Month to date cooling degree days  
Year to date cooling degree days  
Growing Degree Days 22 (Base 50)    
Moisture  
Dew Point 70 °F    
Average Humidity 99    
Maximum Humidity 100    
Minimum Humidity 94    
Precipitation  
Precipitation 0.00 in 0.15 in 0.81 in (1982)
Month to date precipitation 2.72  
Year to date precipitation 16.92  
Sea Level Pressure  
Sea Level Pressure 30.12 in    
Wind  
Wind Speed 5 mph (South)    
Max Wind Speed 20 mph    
Max Gust Speed 22 mph    
Visibility 10 miles    
Events      
T = Trace of Precipitation, MM = Missing Value Source: NWS Daily Summary

Daily Weather History Graph

Daily Weather History Graph

Search for Another Location

Airport or City:

Trip Planner

Search our weather history database for the weather conditions in past years. The results will help you decide how hot, cold, wet, or windy it might be!

Date:

Astronomy

Apr. 17, 2013 Rise Set
Actual Time 6:06 AM CDT 7:17 PM CDT
Civil Twilight 5:39 AM CDT 7:44 PM CDT
Nautical Twilight 5:07 AM CDT 8:16 PM CDT
Astronomical Twilight 4:34 AM CDT 8:49 PM CDT
Moon 11:22 AM CDT (4/17) 12:51 AM CDT (4/17)
Length of Visible Light 14h 04m
Length of Day
13h 11m
Waxing Crescent, 42% of the Moon is Illuminated
Apr 17
Waxing Crescent
Apr 18
First Quarter
Apr 25
Full
May 2
Last Quarter
May 9
New

Hourly Weather History & Observations

Time (CDT) Temp. Heat Index Dew Point Humidity Pressure Visibility Wind Dir Wind Speed Gust Speed Precip Events Conditions
12:15 AM 68.0 °F - 68.0 °F 100% 30.15 in 10.0 mi South 3.5 mph - N/A   Clear
12:35 AM 66.2 °F - 66.2 °F 100% 30.15 in 10.0 mi Calm Calm - N/A   Clear
12:55 AM 62.6 °F - 62.6 °F 100% 30.15 in 10.0 mi Calm Calm - N/A   Clear
1:15 AM 64.4 °F - 64.4 °F 100% 30.15 in 10.0 mi South 4.6 mph - N/A   Mostly Cloudy
1:35 AM 68.0 °F - 68.0 °F 100% 30.15 in 10.0 mi SSE 4.6 mph - N/A   Overcast
1:55 AM 69.8 °F - 69.8 °F 100% 30.15 in 10.0 mi Calm Calm - N/A   Unknown
2:15 AM 69.8 °F - 69.8 °F 100% 30.15 in 10.0 mi South 4.6 mph - N/A   Mostly Cloudy
2:35 AM 69.8 °F - 69.8 °F 100% 30.15 in 10.0 mi SSE 3.5 mph - N/A   Mostly Cloudy
2:55 AM 69.8 °F - 69.8 °F 100% 30.14 in 10.0 mi South 5.8 mph - N/A   Mostly Cloudy
3:15 AM 69.8 °F - 69.8 °F 100% 30.15 in 10.0 mi South 5.8 mph - N/A   Scattered Clouds
3:35 AM 68.0 °F - 68.0 °F 100% 30.14 in 10.0 mi SSE 5.8 mph - N/A   Partly Cloudy
3:55 AM 68.0 °F - 68.0 °F 100% 30.14 in 10.0 mi SSE 5.8 mph - N/A   Clear
4:15 AM 68.0 °F - 68.0 °F 100% 30.14 in 10.0 mi SSE 5.8 mph - N/A   Unknown
4:35 AM 66.2 °F - 66.2 °F 100% 30.15 in 10.0 mi SSE 3.5 mph - N/A   Partly Cloudy
4:55 AM 66.2 °F - 66.2 °F 100% 30.15 in 10.0 mi Calm Calm - N/A   Clear
5:15 AM 62.6 °F - 62.6 °F 100% 30.16 in 10.0 mi Calm Calm - N/A   Partly Cloudy
5:35 AM 62.6 °F - 62.6 °F 100% 30.16 in 10.0 mi Calm Calm - N/A   Partly Cloudy
5:55 AM 62.6 °F - 62.6 °F 100% 30.17 in 10.0 mi Calm Calm - N/A   Clear
6:15 AM 60.8 °F - 60.8 °F 100% 30.17 in 10.0 mi Calm Calm - N/A   Clear
6:35 AM 62.6 °F - 62.6 °F 100% 30.17 in 10.0 mi Calm Calm - N/A   Clear
6:55 AM 62.6 °F - 62.6 °F 100% 30.18 in 10.0 mi Calm Calm - N/A   Clear
7:15 AM 66.2 °F - 66.2 °F 100% 30.18 in 10.0 mi SSE 4.6 mph - N/A   Partly Cloudy
7:35 AM 69.8 °F - 69.8 °F 100% 30.18 in 10.0 mi South 6.9 mph - N/A   Partly Cloudy
7:55 AM 69.8 °F - 69.8 °F 100% 30.18 in 10.0 mi South 6.9 mph - N/A   Scattered Clouds
8:15 AM 69.8 °F - 69.8 °F 100% 30.18 in 10.0 mi South 5.8 mph - N/A   Partly Cloudy
8:35 AM 71.6 °F - 71.6 °F 100% 30.18 in 10.0 mi South 4.6 mph - N/A   Scattered Clouds
9:15 AM 73.4 °F - 73.4 °F 100% 30.18 in 10.0 mi SSW 8.1 mph - N/A   Clear
9:35 AM 75.2 °F - 75.2 °F 100% 30.17 in 10.0 mi South 10.4 mph - N/A   Clear
9:55 AM 77.0 °F - 75.2 °F 94% 30.17 in 10.0 mi SW 9.2 mph - N/A   Clear
10:15 AM 78.8 °F - 78.8 °F 100% 30.17 in 10.0 mi SSW 8.1 mph - N/A   Clear
10:35 AM 78.8 °F - 78.8 °F 100% 30.17 in 9.0 mi SSW 5.8 mph - N/A   Partly Cloudy
10:55 AM 78.8 °F - 78.8 °F 100% 30.17 in 10.0 mi South 5.8 mph - N/A   Partly Cloudy
11:15 AM 78.8 °F - 78.8 °F 100% 30.16 in 9.0 mi SW 9.2 mph - N/A   Scattered Clouds
11:35 AM 78.8 °F - 78.8 °F 100% 30.16 in 9.0 mi SW 8.1 mph - N/A   Scattered Clouds
11:55 AM 78.8 °F - 78.8 °F 100% 30.15 in 10.0 mi Variable 4.6 mph - N/A   Scattered Clouds
12:15 PM 80.6 °F 89.3 °F 80.6 °F 100% 30.14 in 9.0 mi WNW 3.5 mph - N/A   Partly Cloudy
12:35 PM 82.4 °F 94.0 °F 80.6 °F 94% 30.13 in 9.0 mi WSW 4.6 mph - N/A   Scattered Clouds
12:55 PM 82.4 °F 96.1 °F 82.4 °F 100% 30.12 in 5.0 mi WSW 8.1 mph - N/A   Scattered Clouds
1:15 PM 84.2 °F 103.5 °F 84.2 °F 100% 30.12 in 5.0 mi SW 8.1 mph - N/A   Partly Cloudy
1:35 PM 84.2 °F 100.6 °F 82.4 °F 94% 30.11 in 6.0 mi SW 6.9 mph - N/A   Partly Cloudy
1:55 PM 78.8 °F - 78.8 °F 100% 30.13 in 6.0 mi ESE 18.4 mph 21.9 mph N/A   Mostly Cloudy
2:15 PM 71.6 °F - 71.6 °F 100% 30.13 in 9.0 mi East 13.8 mph - N/A   Overcast
2:35 PM 71.6 °F - 69.8 °F 94% 30.14 in 10.0 mi ESE 19.6 mph - N/A   Mostly Cloudy
2:55 PM 69.8 °F - 69.8 °F 100% 30.12 in 10.0 mi ESE 19.6 mph - N/A   Mostly Cloudy
3:35 PM 71.6 °F - 69.8 °F 94% 30.11 in 10.0 mi SE 12.7 mph - N/A   Scattered Clouds
3:55 PM 71.6 °F - 69.8 °F 94% 30.12 in 10.0 mi ESE 10.4 mph - N/A   Mostly Cloudy
4:15 PM 71.6 °F - 69.8 °F 94% 30.11 in 10.0 mi SE 9.2 mph - N/A   Mostly Cloudy
4:35 PM 73.4 °F - 71.6 °F 94% 30.10 in 10.0 mi SE 11.5 mph - N/A   Partly Cloudy
4:55 PM 71.6 °F - 69.8 °F 94% 30.09 in 10.0 mi SE 9.2 mph - N/A   Partly Cloudy
5:15 PM 73.4 °F - 71.6 °F 94% 30.08 in 10.0 mi SSE 9.2 mph - N/A   Clear
5:35 PM 73.4 °F - 71.6 °F 94% 30.08 in 10.0 mi SSE 8.1 mph - N/A   Clear
5:55 PM 71.6 °F - 71.6 °F 100% 30.07 in 10.0 mi South 10.4 mph - N/A   Clear
6:15 PM 71.6 °F - 69.8 °F 94% 30.07 in 10.0 mi South 8.1 mph - N/A   Clear
6:35 PM 69.8 °F - 69.8 °F 100% 30.08 in 10.0 mi SSE 9.2 mph - N/A   Clear
6:55 PM 69.8 °F - 69.8 °F 100% 30.07 in 10.0 mi South 10.4 mph - N/A   Clear
7:15 PM 68.0 °F - 68.0 °F 100% 30.06 in 10.0 mi South 6.9 mph - N/A   Clear
7:35 PM 66.2 °F - 66.2 °F 100% 30.06 in 10.0 mi South 8.1 mph - N/A   Clear
7:55 PM 66.2 °F - 66.2 °F 100% 30.06 in 10.0 mi South 10.4 mph - N/A   Clear
8:15 PM 66.2 °F - 66.2 °F 100% 30.06 in 10.0 mi South 9.2 mph - N/A   Clear
8:35 PM 68.0 °F - 66.2 °F 94% 30.05 in 10.0 mi South 12.7 mph - N/A   Clear
8:55 PM 68.0 °F - 66.2 °F 94% 30.05 in 10.0 mi South 9.2 mph - N/A   Clear
9:15 PM 66.2 °F - 66.2 °F 100% 30.04 in 10.0 mi South 6.9 mph - N/A   Clear
9:35 PM 66.2 °F - 66.2 °F 100% 30.04 in 10.0 mi South 6.9 mph - N/A   Clear
9:55 PM 66.2 °F - 66.2 °F 100% 30.04 in 10.0 mi South 4.6 mph - N/A   Clear
10:15 PM 66.2 °F - 66.2 °F 100% 30.03 in 10.0 mi SSW 8.1 mph - N/A   Clear
10:35 PM 66.2 °F - 66.2 °F 100% 30.03 in 10.0 mi South 6.9 mph - N/A   Clear
11:15 PM 66.2 °F - 66.2 °F 100% 30.03 in 10.0 mi South 6.9 mph - N/A   Clear
11:35 PM 66.2 °F - 64.4 °F 94% 30.02 in 10.0 mi SSW 5.8 mph - N/A   Clear
11:55 PM 64.4 °F - 64.4 °F 100% 30.02 in 10.0 mi South 6.9 mph - N/A   Clear